Time,TemperatureF,DewpointF,PressureIn,WindDirection,WindDirectionDegrees,WindSpeedMPH,WindSpeedGustMPH,Humidity,HourlyPrecipIn,Conditions,Clouds,dailyrainin,SoftwareType,DateUTC
2013-03-01 00:03:00,21.0,-99.9,-100.00,North,-999,12.0,-999.0,0,-99.99,,,-99.99,,2013-03-01 06:03:00,
2013-03-01 00:12:00,21.0,-99.9,-100.00,North,-999,13.0,-999.0,0,-99.99,,,-99.99,,2013-03-01 06:12:00,
2013-03-01 00:22:00,21.0,-99.9,-100.00,North,-999,12.0,-999.0,0,-99.99,,,-99.99,,2013-03-01 06:22:00,
2013-03-01 00:33:00,21.0,-99.9,-100.00,North,-999,10.0,-999.0,0,-99.99,,,-99.99,,2013-03-01 06:33:00,
2013-03-01 00:43:00,21.0,-99.9,-100.00,North,-999,8.0,-999.0,0,-99.99,,,-99.99,,2013-03-01 06:43:00,
2013-03-01 00:53:00,21.0,-99.9,-100.00,North,-999,11.0,-999.0,0,-99.99,,,-99.99,,2013-03-01 06:53:00,
2013-03-01 01:02:00,21.0,-99.9,-100.00,North,-999,11.0,-999.0,0,-99.99,,,-99.99,,2013-03-01 07:02:00,
2013-03-01 01:12:00,21.0,-99.9,-100.00,North,-999,13.0,-999.0,0,-99.99,,,-99.99,,2013-03-01 07:12:00,
2013-03-01 01:22:00,21.0,-99.9,-100.00,NNW,343,8.0,-999.0,0,-99.99,,,-99.99,,2013-03-01 07:22:00,
2013-03-01 01:33:00,21.0,-99.9,-100.00,North,-999,12.0,-999.0,0,-99.99,,,-99.99,,2013-03-01 07:33:00,
2013-03-01 01:43:00,21.0,-99.9,-100.00,North,-999,12.0,-999.0,0,-99.99,,,-99.99,,2013-03-01 07:43:00,
2013-03-01 01:52:00,21.0,-99.9,-100.00,North,-999,14.0,-999.0,0,-99.99,,,-99.99,,2013-03-01 07:52:00,
2013-03-01 02:02:00,21.0,-99.9,-100.00,North,-999,8.0,-999.0,0,-99.99,,,-99.99,,2013-03-01 08:02:00,
2013-03-01 02:12:00,21.0,-99.9,-100.00,North,-999,13.0,-999.0,0,-99.99,,,-99.99,,2013-03-01 08:12:00,
2013-03-01 02:23:00,21.0,-99.9,-100.00,North,-999,14.0,-999.0,0,-99.99,,,-99.99,,2013-03-01 08:23:00,
2013-03-01 02:33:00,21.0,-99.9,-100.00,NNW,341,9.0,-999.0,0,-99.99,,,-99.99,,2013-03-01 08:33:00,
2013-03-01 02:43:00,21.0,-99.9,-100.00,North,-999,10.0,-999.0,0,-99.99,,,-99.99,,2013-03-01 08:43:00,
2013-03-01 02:53:00,21.0,-99.9,-100.00,North,-999,12.0,-999.0,0,-99.99,,,-99.99,,2013-03-01 08:53:00,
2013-03-01 03:03:00,21.0,-99.9,-100.00,North,-999,13.0,-999.0,0,-99.99,,,-99.99,,2013-03-01 09:03:00,
2013-03-01 03:12:00,21.0,-99.9,-100.00,North,-999,14.0,-999.0,0,-99.99,,,-99.99,,2013-03-01 09:12:00,
2013-03-01 03:22:00,20.0,-99.9,-100.00,North,-999,14.0,-999.0,0,-99.99,,,-99.99,,2013-03-01 09:22:00,
2013-03-01 03:33:00,20.0,-99.9,-100.00,North,-999,12.0,-999.0,0,-99.99,,,-99.99,,2013-03-01 09:33:00,
2013-03-01 03:43:00,20.0,-99.9,-100.00,North,-999,12.0,-999.0,0,-99.99,,,-99.99,,2013-03-01 09:43:00,
2013-03-01 03:53:00,20.0,-99.9,-100.00,North,-999,12.0,-999.0,0,-99.99,,,-99.99,,2013-03-01 09:53:00,
2013-03-01 04:03:00,19.0,-99.9,-100.00,North,-999,13.0,-999.0,0,-99.99,,,-99.99,,2013-03-01 10:03:00,
2013-03-01 04:12:00,19.0,-99.9,-100.00,West,259,12.0,-999.0,0,-99.99,,,-99.99,,2013-03-01 10:12:00,
2013-03-01 04:22:00,19.0,-99.9,-100.00,North,-999,12.0,-999.0,0,-99.99,,,-99.99,,2013-03-01 10:22:00,
2013-03-01 04:32:00,19.0,-99.9,-100.00,North,-999,13.0,-999.0,0,-99.99,,,-99.99,,2013-03-01 10:32:00,
2013-03-01 04:43:00,19.0,-99.9,-100.00,North,-999,12.0,-999.0,0,-99.99,,,-99.99,,2013-03-01 10:43:00,
2013-03-01 04:53:00,19.0,-99.9,-100.00,NNW,344,15.0,-999.0,0,-99.99,,,-99.99,,2013-03-01 10:53:00,
2013-03-01 05:02:00,19.0,-99.9,-100.00,North,-999,14.0,-999.0,0,-99.99,,,-99.99,,2013-03-01 11:02:00,
2013-03-01 05:12:00,19.0,-99.9,-100.00,North,-999,14.0,-999.0,0,-99.99,,,-99.99,,2013-03-01 11:12:00,
2013-03-01 05:23:00,19.0,-99.9,-100.00,North,-999,15.0,-999.0,0,-99.99,,,-99.99,,2013-03-01 11:23:00,
2013-03-01 05:32:00,19.0,-99.9,-100.00,North,-999,11.0,-999.0,0,-99.99,,,-99.99,,2013-03-01 11:32:00,
2013-03-01 05:42:00,19.0,-99.9,-100.00,North,-999,11.0,-999.0,0,-99.99,,,-99.99,,2013-03-01 11:42:00,
2013-03-01 05:53:00,19.0,-99.9,-100.00,West,273,15.0,-999.0,0,-99.99,,,-99.99,,2013-03-01 11:53:00,
2013-03-01 06:02:00,19.0,-99.9,-100.00,North,-999,18.0,-999.0,0,-99.99,,,-99.99,,2013-03-01 12:02:00,
2013-03-01 06:11:00,18.0,-99.9,-100.00,North,-999,17.0,-999.0,0,-99.99,,,-99.99,,2013-03-01 12:11:00,
2013-03-01 06:22:00,18.0,-99.9,-100.00,North,-999,13.0,-999.0,0,-99.99,,,-99.99,,2013-03-01 12:22:00,
2013-03-01 06:33:00,18.0,-99.9,-100.00,North,-999,12.0,-999.0,0,-99.99,,,-99.99,,2013-03-01 12:33:00,
2013-03-01 06:42:00,18.0,-99.9,-100.00,North,-999,17.0,-999.0,0,-99.99,,,-99.99,,2013-03-01 12:42:00,
2013-03-01 06:52:00,18.0,-99.9,-100.00,East,89,10.0,-999.0,0,-99.99,,,-99.99,,2013-03-01 12:52:00,
2013-03-01 07:01:00,18.0,-99.9,-100.00,North,3,14.0,-999.0,0,-99.99,,,-99.99,,2013-03-01 13:01:00,
2013-03-01 07:12:00,18.0,-99.9,-100.00,North,-999,11.0,-999.0,0,-99.99,,,-99.99,,2013-03-01 13:12:00,
2013-03-01 07:22:00,18.0,-99.9,-100.00,East,88,10.0,-999.0,0,-99.99,,,-99.99,,2013-03-01 13:22:00,
2013-03-01 07:32:00,18.0,-99.9,-100.00,North,-999,11.0,-999.0,0,-99.99,,,-99.99,,2013-03-01 13:32:00,
2013-03-01 07:42:00,18.0,-99.9,-100.00,North,-999,11.0,-999.0,0,-99.99,,,-99.99,,2013-03-01 13:42:00,
2013-03-01 07:52:00,18.0,-99.9,-100.00,North,-999,14.0,-999.0,0,-99.99,,,-99.99,,2013-03-01 13:52:00,
2013-03-01 08:02:00,18.0,-99.9,-100.00,West,259,12.0,-999.0,0,-99.99,,,-99.99,,2013-03-01 14:02:00,
2013-03-01 08:12:00,17.0,-99.9,-100.00,North,-999,12.0,-999.0,0,-99.99,,,-99.99,,2013-03-01 14:12:00,
2013-03-01 08:22:00,17.0,-99.9,-100.00,South,173,13.0,-999.0,0,-99.99,,,-99.99,,2013-03-01 14:22:00,
2013-03-01 08:32:00,17.0,-99.9,-100.00,North,-999,11.0,-999.0,0,-99.99,,,-99.99,,2013-03-01 14:32:00,
2013-03-01 08:42:00,17.0,-99.9,-100.00,North,-999,13.0,-999.0,0,-99.99,,,-99.99,,2013-03-01 14:42:00,
2013-03-01 08:52:00,16.0,-99.9,-100.00,North,-999,10.0,-999.0,0,-99.99,,,-99.99,,2013-03-01 14:52:00,
2013-03-01 09:02:00,16.0,-99.9,-100.00,North,-999,10.0,-999.0,0,-99.99,,,-99.99,,2013-03-01 15:02:00,
2013-03-01 09:12:00,16.0,-99.9,-100.00,North,-999,10.0,-999.0,0,-99.99,,,-99.99,,2013-03-01 15:12:00,
2013-03-01 09:22:00,16.0,-99.9,-100.00,East,90,12.0,-999.0,0,-99.99,,,-99.99,,2013-03-01 15:22:00,
2013-03-01 09:32:00,16.0,-99.9,-100.00,South,176,12.0,-999.0,0,-99.99,,,-99.99,,2013-03-01 15:32:00,
2013-03-01 09:42:00,16.0,-99.9,-100.00,NNW,329,12.0,-999.0,0,-99.99,,,-99.99,,2013-03-01 15:42:00,
2013-03-01 09:52:00,17.0,-99.9,-100.00,South,174,13.0,-999.0,0,-99.99,,,-99.99,,2013-03-01 15:52:00,
2013-03-01 10:01:00,17.0,-99.9,-100.00,NNE,18,15.0,-999.0,0,-99.99,,,-99.99,,2013-03-01 16:01:00,
2013-03-01 10:11:00,17.0,-99.9,-100.00,NNE,19,16.0,-999.0,0,-99.99,,,-99.99,,2013-03-01 16:11:00,
2013-03-01 10:22:00,17.0,-99.9,-100.00,NNE,18,12.0,-999.0,0,-99.99,,,-99.99,,2013-03-01 16:22:00,
2013-03-01 10:32:00,17.0,-99.9,-100.00,NNE,23,14.0,-999.0,0,-99.99,,,-99.99,,2013-03-01 16:32:00,
2013-03-01 10:42:00,17.0,-99.9,-100.00,NNE,15,15.0,-999.0,0,-99.99,,,-99.99,,2013-03-01 16:42:00,
2013-03-01 10:52:00,18.0,-99.9,-100.00,NNE,22,11.0,-999.0,0,-99.99,,,-99.99,,2013-03-01 16:52:00,
2013-03-01 11:01:00,18.0,-99.9,-100.00,NNE,22,11.0,-999.0,0,-99.99,,,-99.99,,2013-03-01 17:01:00,
2013-03-01 11:11:00,18.0,-99.9,-100.00,NNE,15,14.0,-999.0,0,-99.99,,,-99.99,,2013-03-01 17:11:00,
2013-03-01 11:21:00,18.0,-99.9,-100.00,North,6,11.0,-999.0,0,-99.99,,,-99.99,,2013-03-01 17:21:00,
2013-03-01 11:32:00,18.0,-99.9,-100.00,NNE,23,13.0,-999.0,0,-99.99,,,-99.99,,2013-03-01 17:32:00,
2013-03-01 11:42:00,19.0,-99.9,-100.00,NNE,22,13.0,-999.0,0,-99.99,,,-99.99,,2013-03-01 17:42:00,
2013-03-01 11:52:00,19.0,-99.9,-100.00,NNE,16,11.0,-999.0,0,-99.99,,,-99.99,,2013-03-01 17:52:00,
2013-03-01 12:02:00,19.0,-99.9,-100.00,NNE,14,11.0,-999.0,0,-99.99,,,-99.99,,2013-03-01 18:02:00,
2013-03-01 12:12:00,19.0,-99.9,-100.00,NNE,14,10.0,-999.0,0,-99.99,,,-99.99,,2013-03-01 18:12:00,
2013-03-01 12:22:00,19.0,-99.9,-100.00,North,10,11.0,-999.0,0,-99.99,,,-99.99,,2013-03-01 18:22:00,
2013-03-01 12:32:00,20.0,-99.9,-100.00,NNE,19,10.0,-999.0,0,-99.99,,,-99.99,,2013-03-01 18:32:00,
2013-03-01 12:42:00,20.0,-99.9,-100.00,North,-999,14.0,-999.0,0,-99.99,,,-99.99,,2013-03-01 18:42:00,
2013-03-01 12:52:00,20.0,-99.9,-100.00,North,6,10.0,-999.0,0,-99.99,,,-99.99,,2013-03-01 18:52:00,
2013-03-01 13:02:00,21.0,-99.9,-100.00,NNE,13,12.0,-999.0,0,-99.99,,,-99.99,,2013-03-01 19:02:00,
2013-03-01 13:11:00,21.0,-99.9,-100.00,NNE,13,12.0,-999.0,0,-99.99,,,-99.99,,2013-03-01 19:11:00,
2013-03-01 13:22:00,21.0,-99.9,-100.00,NNE,21,13.0,-999.0,0,-99.99,,,-99.99,,2013-03-01 19:22:00,
2013-03-01 13:32:00,20.0,-99.9,-100.00,North,-999,12.0,-999.0,0,-99.99,,,-99.99,,2013-03-01 19:32:00,
2013-03-01 13:42:00,21.0,-99.9,-100.00,NNE,20,12.0,-999.0,0,-99.99,,,-99.99,,2013-03-01 19:42:00,
2013-03-01 13:52:00,21.0,-99.9,-100.00,NNE,20,13.0,-999.0,0,-99.99,,,-99.99,,2013-03-01 19:52:00,
2013-03-01 14:01:00,22.0,-99.9,-100.00,NE,54,17.0,-999.0,0,-99.99,,,-99.99,,2013-03-01 20:01:00,
2013-03-01 14:11:00,21.0,-99.9,-100.00,North,-999,13.0,-999.0,0,-99.99,,,-99.99,,2013-03-01 20:11:00,
2013-03-01 14:22:00,21.0,-99.9,-100.00,NNE,17,11.0,-999.0,0,-99.99,,,-99.99,,2013-03-01 20:22:00,
2013-03-01 14:32:00,22.0,-99.9,-100.00,NE,48,11.0,-999.0,0,-99.99,,,-99.99,,2013-03-01 20:32:00,
2013-03-01 14:42:00,22.0,-99.9,-100.00,North,-999,17.0,-999.0,0,-99.99,,,-99.99,,2013-03-01 20:42:00,
2013-03-01 14:52:00,22.0,-99.9,-100.00,NNE,26,14.0,-999.0,0,-99.99,,,-99.99,,2013-03-01 20:52:00,
2013-03-01 15:02:00,21.0,-99.9,-100.00,NNE,27,11.0,-999.0,0,-99.99,,,-99.99,,2013-03-01 21:02:00,
2013-03-01 15:11:00,21.0,-99.9,-100.00,NNE,27,11.0,-999.0,0,-99.99,,,-99.99,,2013-03-01 21:11:00,
2013-03-01 15:22:00,22.0,-99.9,-100.00,NNE,20,11.0,-999.0,0,-99.99,,,-99.99,,2013-03-01 21:22:00,
2013-03-01 15:32:00,22.0,-99.9,-100.00,NNE,13,13.0,-999.0,0,-99.99,,,-99.99,,2013-03-01 21:32:00,
2013-03-01 15:42:00,22.0,-99.9,-100.00,NNE,13,13.0,-999.0,0,-99.99,,,-99.99,,2013-03-01 21:42:00,
2013-03-01 15:52:00,22.0,-99.9,-100.00,North,-999,15.0,-999.0,0,-99.99,,,-99.99,,2013-03-01 21:52:00,
2013-03-01 16:01:00,22.0,-99.9,-100.00,North,8,13.0,-999.0,0,-99.99,,,-99.99,,2013-03-01 22:01:00,
2013-03-01 16:12:00,22.0,-99.9,-100.00,North,8,13.0,-999.0,0,-99.99,,,-99.99,,2013-03-01 22:12:00,
2013-03-01 16:22:00,22.0,-99.9,-100.00,North,2,14.0,-999.0,0,-99.99,,,-99.99,,2013-03-01 22:22:00,
2013-03-01 16:32:00,22.0,-99.9,-100.00,West,260,13.0,-999.0,0,-99.99,,,-99.99,,2013-03-01 22:32:00,
2013-03-01 16:42:00,22.0,-99.9,-100.00,North,10,12.0,-999.0,0,-99.99,,,-99.99,,2013-03-01 22:42:00,
2013-03-01 16:52:00,22.0,-99.9,-100.00,SSW,209,12.0,-999.0,0,-99.99,,,-99.99,,2013-03-01 22:52:00,
2013-03-01 17:01:00,22.0,-99.9,-100.00,North,3,11.0,-999.0,0,-99.99,,,-99.99,,2013-03-01 23:01:00,
2013-03-01 17:11:00,22.0,-99.9,-100.00,North,3,11.0,-999.0,0,-99.99,,,-99.99,,2013-03-01 23:11:00,
2013-03-01 17:22:00,22.0,-99.9,-100.00,NNE,13,15.0,-999.0,0,-99.99,,,-99.99,,2013-03-01 23:22:00,
2013-03-01 17:32:00,22.0,-99.9,-100.00,North,10,12.0,-999.0,0,-99.99,,,-99.99,,2013-03-01 23:32:00,
2013-03-01 17:42:00,22.0,-99.9,-100.00,North,10,12.0,-999.0,0,-99.99,,,-99.99,,2013-03-01 23:42:00,
2013-03-01 17:52:00,22.0,-99.9,-100.00,NNE,18,11.0,-999.0,0,-99.99,,,-99.99,,2013-03-01 23:52:00,
2013-03-01 18:02:00,22.0,-99.9,-100.00,North,6,13.0,-999.0,0,-99.99,,,-99.99,,2013-03-02 00:02:00,
2013-03-01 18:12:00,22.0,-99.9,-100.00,NNE,14,10.0,-999.0,0,-99.99,,,-99.99,,2013-03-02 00:12:00,
2013-03-01 18:22:00,21.0,-99.9,-100.00,North,4,8.0,-999.0,0,-99.99,,,-99.99,,2013-03-02 00:22:00,
2013-03-01 18:32:00,21.0,-99.9,-100.00,NNE,12,9.0,-999.0,0,-99.99,,,-99.99,,2013-03-02 00:32:00,
2013-03-01 18:42:00,20.0,-99.9,-100.00,West,259,7.0,-999.0,0,-99.99,,,-99.99,,2013-03-02 00:42:00,
2013-03-01 18:52:00,20.0,-99.9,-100.00,North,8,7.0,-999.0,0,-99.99,,,-99.99,,2013-03-02 00:52:00,
2013-03-01 19:01:00,18.0,-99.9,-100.00,North,1,5.0,-999.0,0,-99.99,,,-99.99,,2013-03-02 01:01:00,
2013-03-01 19:11:00,18.0,-99.9,-100.00,North,-999,7.0,-999.0,0,-99.99,,,-99.99,,2013-03-02 01:11:00,
2013-03-01 19:21:00,18.0,-99.9,-100.00,North,4,5.0,-999.0,0,-99.99,,,-99.99,,2013-03-02 01:21:00,
2013-03-01 19:32:00,18.0,-99.9,-100.00,North,-999,4.0,-999.0,0,-99.99,,,-99.99,,2013-03-02 01:32:00,
2013-03-01 19:42:00,18.0,-99.9,-100.00,North,-999,4.0,-999.0,0,-99.99,,,-99.99,,2013-03-02 01:42:00,
2013-03-01 19:52:00,18.0,-99.9,-100.00,North,-999,6.0,-999.0,0,-99.99,,,-99.99,,2013-03-02 01:52:00,
2013-03-01 20:02:00,18.0,-99.9,-100.00,North,-999,6.0,-999.0,0,-99.99,,,-99.99,,2013-03-02 02:02:00,
2013-03-01 20:11:00,18.0,-99.9,-100.00,North,2,6.0,-999.0,0,-99.99,,,-99.99,,2013-03-02 02:11:00,
2013-03-01 20:22:00,17.0,-99.9,-100.00,North,5,5.0,-999.0,0,-99.99,,,-99.99,,2013-03-02 02:22:00,
2013-03-01 20:32:00,16.0,-99.9,-100.00,North,7,4.0,-999.0,0,-99.99,,,-99.99,,2013-03-02 02:32:00,
2013-03-01 20:42:00,16.0,-99.9,-100.00,North,-999,4.0,-999.0,0,-99.99,,,-99.99,,2013-03-02 02:42:00,
2013-03-01 20:53:00,17.0,-99.9,-100.00,North,-999,6.0,-999.0,0,-99.99,,,-99.99,,2013-03-02 02:53:00,
2013-03-01 21:02:00,16.0,-99.9,-100.00,North,-999,5.0,-999.0,0,-99.99,,,-99.99,,2013-03-02 03:02:00,
2013-03-01 21:11:00,16.0,-99.9,-100.00,North,-999,5.0,-999.0,0,-99.99,,,-99.99,,2013-03-02 03:11:00,
2013-03-01 21:22:00,16.0,-99.9,-100.00,NNW,336,7.0,-999.0,0,-99.99,,,-99.99,,2013-03-02 03:22:00,
2013-03-01 21:32:00,16.0,-99.9,-100.00,NNW,337,5.0,-999.0,0,-99.99,,,-99.99,,2013-03-02 03:32:00,
2013-03-01 21:42:00,15.0,-99.9,-100.00,NNW,337,5.0,-999.0,0,-99.99,,,-99.99,,2013-03-02 03:42:00,
2013-03-01 21:53:00,15.0,-99.9,-100.00,NNW,334,4.0,-999.0,0,-99.99,,,-99.99,,2013-03-02 03:53:00,
2013-03-01 22:02:00,15.0,-99.9,-100.00,NNW,330,6.0,-999.0,0,-99.99,,,-99.99,,2013-03-02 04:02:00,
2013-03-01 22:12:00,15.0,-99.9,-100.00,NNW,334,5.0,-999.0,0,-99.99,,,-99.99,,2013-03-02 04:12:00,
2013-03-01 22:22:00,15.0,-99.9,-100.00,NNW,337,5.0,-999.0,0,-99.99,,,-99.99,,2013-03-02 04:22:00,
2013-03-01 22:32:00,15.0,-99.9,-100.00,NNW,334,5.0,-999.0,0,-99.99,,,-99.99,,2013-03-02 04:32:00,
2013-03-01 22:42:00,15.0,-99.9,-100.00,NNW,340,4.0,-999.0,0,-99.99,,,-99.99,,2013-03-02 04:42:00,
2013-03-01 22:52:00,15.0,-99.9,-100.00,NNW,334,4.0,-999.0,0,-99.99,,,-99.99,,2013-03-02 04:52:00,
2013-03-01 23:02:00,15.0,-99.9,-100.00,NNW,334,4.0,-999.0,0,-99.99,,,-99.99,,2013-03-02 05:02:00,
2013-03-01 23:12:00,15.0,-99.9,-100.00,NNW,338,4.0,-999.0,0,-99.99,,,-99.99,,2013-03-02 05:12:00,
2013-03-01 23:32:00,13.0,-99.9,-100.00,North,-999,2.0,-999.0,0,-99.99,,,-99.99,,2013-03-02 05:32:00,
2013-03-01 23:42:00,13.0,-99.9,-100.00,North,-999,2.0,-999.0,0,-99.99,,,-99.99,,2013-03-02 05:42:00,
2013-03-01 23:52:00,13.0,-99.9,-100.00,NW,315,2.0,-999.0,0,-99.99,,,-99.99,,2013-03-02 05:52:00,